Home > Time Zones > World Clock > Weather > Egypt > Cairo > Past weeks

Flag for Egypt Weather past 2 weeks in Cairo, Egypt

Now
77 °F

Fog.


Feels Like: 79 °F
Forecast: 75 / 100 °F
Wind: No wind

Location: Cairo Airport

Current Time: Jul 29, 2014 at 6:52:49 AM

Latest Report: Jul 29, 2014 at 6:00 AM


Visibility: 2 mi

Pressure: 29.86 "Hg

Humidity: 79%

Dew point: 70 °F

Location of CairoLocation

Historic Weather in Cairo — Graph

°F

Cairo temperature yesterday

Maximum temperature yesterday: 95 °F (at 1:30 PM)
Minimum temperature yesterday: 75 °F (at 6:00 AM)
Average temperature yesterday: 85 °F

Past Weeks' High & Low Weather Summary

 TemperatureHumidityPressure
High95 °F (Jul 23, 1:30 PM)89% (Jul 23, 4:30 AM)29.95 "Hg (Jul 23, 4:30 AM)
Low73 °F (Jul 14, 5:00 AM)19% (Jul 24, 12:00 PM)29.74 "Hg (Jul 15, 5:00 PM)
Average83 °F56%29.83 "Hg
* Reported Jul 14 5:00 AM — Jul 29 5:30 AM, Cairo, Weather by CustomWeather, © 2014

Note: Actual official high and low records may vary slightly from our data, if they occured in-between our weather recording intervals... More about our weather records

Advertising

Cairo weather history for previous 24 hours

 ConditionsComfort  
Time TempWeatherWind HumidityBarometerVisibility
5:30 AM
Jul 29
75 °FFog.No wind83%29.86 "Hg2 mi
5:00 AM77 °FFog.No wind79%29.86 "Hg2 mi
4:30 AM77 °FClear.No wind79%29.83 "Hg4 mi
4:00 AM77 °FClear.No wind79%29.83 "Hg10 mi
3:30 AM77 °FClear.5 mph79%29.83 "Hg10 mi
3:00 AM77 °FClear.5 mph79%29.86 "Hg10 mi
2:30 AM79 °FClear.3 mph74%29.86 "Hg10 mi
2:00 AM79 °FClear.6 mph74%29.86 "Hg10 mi
1:30 AM79 °FClear.5 mph74%29.86 "Hg10 mi
1:00 AM79 °FClear.6 mph74%29.86 "Hg10 mi
12:30 AM81 °FClear.5 mph70%29.86 "Hg10 mi
12:00 AM81 °FClear.8 mph74%29.86 "Hg10 mi
11:30 PM
Jul 28
81 °FClear.7 mph70%29.89 "Hg10 mi
11:00 PM82 °FClear.9 mph66%29.89 "Hg10 mi
10:30 PM82 °FClear.9 mph66%29.89 "Hg10 mi
10:00 PM82 °FClear.10 mph66%29.89 "Hg10 mi
9:30 PM84 °FClear.9 mph58%29.89 "Hg10 mi
9:00 PM84 °FClear.12 mph58%29.89 "Hg10 mi
8:30 PM86 °FClear.13 mph59%29.86 "Hg10 mi
8:00 PM88 °FClear.12 mph55%29.89 "Hg10 mi
7:30 PM88 °FClear.10 mph59%29.86 "Hg10 mi
7:00 PM90 °FClear.10 mph52%29.86 "Hg10 mi
6:30 PM90 °FSunny.10 mph52%29.86 "Hg10 mi
6:00 PM90 °FSunny.10 mph52%29.86 "Hg10 mi
5:30 PM91 °FSunny.9 mph49%29.86 "Hg10 mi
5:00 PM93 °FSunny.12 mph39%29.86 "Hg10 mi
4:30 PM93 °FSunny.10 mph36%29.86 "Hg10 mi
4:00 PM93 °FSunny.10 mph36%29.86 "Hg10 mi
3:30 PM95 °FSunny.10 mph25%29.86 "Hg10 mi
3:00 PM95 °FSunny.9 mph26%29.86 "Hg10 mi
2:30 PM95 °FSunny.9 mph34%29.86 "Hg10 mi
2:00 PM93 °FSunny.7 mph36%29.89 "Hg10 mi
1:30 PM95 °FSunny.8 mph32%29.89 "Hg10 mi
1:00 PM91 °FSunny.9 mph36%29.89 "Hg10 mi
12:30 PM91 °FSunny.6 mph36%29.89 "Hg10 mi
12:00 PM90 °FSunny.6 mph41%29.92 "Hg10 mi
11:30 AM90 °FSunny.5 mph46%29.92 "Hg10 mi
11:00 AM88 °FSunny.5 mph46%29.92 "Hg10 mi
10:30 AM86 °FSunny.2 mph52%29.95 "Hg10 mi
10:00 AM86 °FSunny.2 mph59%29.95 "Hg10 mi
9:30 AM82 °FClear.6 mph66%29.95 "Hg4 mi
9:00 AM82 °FClear.3 mph66%29.95 "Hg4 mi
8:30 AM81 °FFog.3 mph70%29.95 "Hg2 mi
8:00 AM79 °FFog.6 mph79%29.95 "Hg2 mi
7:30 AM77 °FFog.7 mph83%29.95 "Hg2 mi
7:00 AM77 °FFog.5 mph83%29.92 "Hg2 mi
6:30 AM77 °FFog.6 mph83%29.92 "Hg2 mi
6:00 AM75 °FClear.6 mph89%29.92 "Hg4 mi
Weather by CustomWeather, © 2014

See weather overviewHow to use our weather pages